| time (UTC) | temp F | wind direction | speed MPH | gust MPH | rain 1hr in | rain 24hr in | rain mn in | humidity % | barometer mb |
| 20260504201920 | 80 | 215 | 3.0 | 6.0 | 0.00 | 0.00 | 0.00 | 31 | 1021.5 |
| 20260504201417 | 80 | 122 | 2.0 | 3.0 | 0.00 | 0.00 | 0.00 | 32 | 1021.7 |
| 20260504200915 | 80 | 234 | 6.0 | 8.0 | 0.00 | 0.00 | 0.00 | 31 | 1021.8 |
| 20260504200411 | 79 | 155 | 9.0 | 10.0 | 0.00 | 0.00 | 0.00 | 32 | 1021.8 |
| 20260504195908 | 79 | 201 | 5.0 | 6.0 | 0.00 | 0.00 | 0.00 | 32 | 1021.9 |
| 20260504195404 | 79 | 189 | 3.0 | 6.0 | 0.00 | 0.00 | 0.00 | 32 | 1021.9 |
| 20260504194900 | 78 | 197 | 5.0 | 6.0 | 0.00 | 0.00 | 0.00 | 32 | 1021.8 |
| 20260504194356 | 79 | 204 | 10.0 | 11.0 | 0.00 | 0.00 | 0.00 | 32 | 1022.1 |
| 20260504193852 | 79 | 147 | 0.0 | 1.0 | 0.00 | 0.00 | 0.00 | 31 | 1022.2 |
| 20260504193350 | 79 | 289 | 3.0 | 3.0 | 0.00 | 0.00 | 0.00 | 32 | 1022.0 |
| 20260504192849 | 78 | 232 | 2.0 | 8.0 | 0.00 | 0.00 | 0.00 | 32 | 1022.3 |
| 20260504192346 | 78 | 189 | 3.0 | 7.0 | 0.00 | 0.00 | 0.00 | 32 | 1022.3 |
| 20260504191844 | 79 | 246 | 7.0 | 9.0 | 0.00 | 0.00 | 0.00 | 33 | 1022.2 |
| 20260504191342 | 79 | 231 | 5.0 | 6.0 | 0.00 | 0.00 | 0.00 | 31 | 1022.2 |
| 20260504190837 | 79 | 236 | 4.0 | 6.0 | 0.00 | 0.00 | 0.00 | 31 | 1022.3 |
| 20260504190333 | 79 | 156 | 4.0 | 7.0 | 0.00 | 0.00 | 0.00 | 32 | 1022.4 |
| 20260504185830 | 79 | 201 | 2.0 | 5.0 | 0.00 | 0.00 | 0.00 | 33 | 1022.6 |
| 20260504185327 | 78 | 221 | 4.0 | 5.0 | 0.00 | 0.00 | 0.00 | 33 | 1022.6 |
| 20260504184823 | 78 | 172 | 7.0 | 9.0 | 0.00 | 0.00 | 0.00 | 34 | 1022.7 |
| 20260504184319 | 78 | 96 | 1.0 | 8.0 | 0.00 | 0.00 | 0.00 | 33 | 1022.9 |
| 20260504183815 | 77 | 184 | 7.0 | 8.0 | 0.00 | 0.00 | 0.00 | 33 | 1022.9 |
| 20260504183312 | 78 | 173 | 3.0 | 9.0 | 0.00 | 0.00 | 0.00 | 33 | 1022.9 |
| 20260504182810 | 78 | 182 | 1.0 | 1.0 | 0.00 | 0.00 | 0.00 | 32 | 1022.9 |
| 20260504182307 | 77 | 144 | 0.0 | 2.0 | 0.00 | 0.00 | 0.00 | 32 | 1022.9 |
| 20260504181804 | 77 | 220 | 5.0 | 6.0 | 0.00 | 0.00 | 0.00 | 32 | 1022.8 |
| 20260504181301 | 78 | 232 | 5.0 | 8.0 | 0.00 | 0.00 | 0.00 | 32 | 1023.0 |
| 20260504180801 | 78 | 225 | 5.0 | 8.0 | 0.00 | 0.00 | 0.00 | 32 | 1022.9 |
| 20260504180259 | 78 | 159 | 0.0 | 3.0 | 0.00 | 0.00 | 0.00 | 34 | 1023.0 |
| 20260504175756 | 78 | 218 | 2.0 | 3.0 | 0.00 | 0.00 | 0.00 | 35 | 1022.9 |
| 20260504175253 | 77 | 354 | 4.0 | 5.0 | 0.00 | 0.00 | 0.00 | 34 | 1022.9 |
| 20260504174751 | 76 | 72 | 2.0 | 3.0 | 0.00 | 0.00 | 0.00 | 34 | 1023.2 |
| 20260504174248 | 77 | 280 | 5.0 | 6.0 | 0.00 | 0.00 | 0.00 | 33 | 1023.2 |
| 20260504173745 | 77 | 266 | 3.0 | 5.0 | 0.00 | 0.00 | 0.00 | 35 | 1023.2 |
| 20260504173242 | 77 | 182 | 2.0 | 7.0 | 0.00 | 0.00 | 0.00 | 34 | 1023.3 |
| 20260504172738 | 77 | 166 | 1.0 | 3.0 | 0.00 | 0.00 | 0.00 | 34 | 1023.1 |
| 20260504172235 | 76 | 44 | 3.0 | 8.0 | 0.00 | 0.00 | 0.00 | 32 | 1023.4 |
| 20260504171731 | 76 | 199 | 1.0 | 10.0 | 0.00 | 0.00 | 0.00 | 34 | 1023.5 |
| 20260504171228 | 76 | 355 | 5.0 | 6.0 | 0.00 | 0.00 | 0.00 | 35 | 1023.5 |
| 20260504170725 | 76 | 121 | 3.0 | 5.0 | 0.00 | 0.00 | 0.00 | 33 | 1023.4 |
| 20260504170223 | 75 | 94 | 2.0 | 3.0 | 0.00 | 0.00 | 0.00 | 32 | 1023.6 |
| 20260504160141 | 75 | 152 | 1.0 | 2.0 | 0.00 | 0.00 | 0.00 | 35 | 1024.2 |
| 20260504151108 | 73 | 291 | 2.0 | 3.0 | 0.00 | 0.00 | 0.00 | 41 | 1024.6 |
| 20260504150606 | 72 | 170 | 1.0 | 2.0 | 0.00 | 0.00 | 0.00 | 41 | 1024.8 |
| 20260504141031 | 68 | 110 | 1.0 | 3.0 | 0.00 | 0.00 | 0.00 | 60 | 1024.9 |
| 20260504140528 | 68 | 156 | 2.0 | 3.0 | 0.00 | 0.00 | 0.00 | 63 | 1024.7 |
| 20260504130452 | 61 | 153 | 2.0 | 3.0 | 0.00 | 0.00 | 0.00 | 83 | 1024.8 |
| 20260504110339 | 47 | 131 | 0.0 | 1.0 | 0.00 | 0.00 | 0.00 | 98 | 1024.4 |
| 20260504100257 | 48 | 125 | 0.0 | 1.0 | 0.00 | 0.00 | 0.00 | 97 | 1023.5 |
| 20260504081650 | 49 | 162 | 0.0 | 0.0 | 0.00 | 0.00 | 0.00 | 96 | 1023.8 |
| 20260504081146 | 49 | 162 | 0.0 | 0.0 | 0.00 | 0.00 | 0.00 | 96 | 1023.8 |
| 20260504080643 | 49 | 162 | 0.0 | 1.0 | 0.00 | 0.00 | 0.00 | 96 | 1023.5 |
| 20260504080139 | 49 | 158 | 0.0 | 0.0 | 0.00 | 0.00 | 0.00 | 96 | 1023.9 |
| 20260504070108 | 50 | 164 | 0.0 | 0.0 | 0.00 | 0.00 | 0.00 | 95 | 1024.5 |
| 20260504050456 | 53 | 165 | 0.0 | 0.0 | 0.00 | 0.00 | 0.00 | 91 | 1024.7 |
| 20260504045953 | 53 | 165 | 0.0 | 0.0 | 0.00 | 0.00 | 0.00 | 91 | 1024.7 |
| 20260504045448 | 53 | 165 | 0.0 | 1.0 | 0.00 | 0.00 | 0.00 | 90 | 1024.6 |
| 20260504044945 | 53 | 165 | 1.0 | 1.0 | 0.00 | 0.00 | 0.00 | 90 | 1024.8 |
| 20260504044443 | 53 | 165 | 0.0 | 0.0 | 0.00 | 0.00 | 0.00 | 90 | 1024.9 |
| 20260504043940 | 54 | 165 | 0.0 | 0.0 | 0.00 | 0.00 | 0.00 | 89 | 1024.9 |
| 20260504043437 | 54 | 165 | 0.0 | 0.0 | 0.00 | 0.00 | 0.00 | 88 | 1024.8 |
| 20260504042934 | 54 | 165 | 0.0 | 0.0 | 0.00 | 0.00 | 0.00 | 88 | 1025.0 |
| 20260504042431 | 55 | 165 | 0.0 | 0.0 | 0.00 | 0.00 | 0.00 | 88 | 1024.7 |
| 20260504041927 | 55 | 165 | 0.0 | 0.0 | 0.00 | 0.00 | 0.00 | 87 | 1024.8 |
| 20260504041423 | 55 | 165 | 0.0 | 1.0 | 0.00 | 0.00 | 0.00 | 86 | 1024.8 |
| 20260504040920 | 55 | 165 | 0.0 | 0.0 | 0.00 | 0.00 | 0.00 | 85 | 1024.7 |
| 20260504040418 | 56 | 165 | 0.0 | 1.0 | 0.00 | 0.00 | 0.00 | 85 | 1024.7 |
| 20260504035908 | 56 | 165 | 0.0 | 1.0 | 0.00 | 0.13 | 0.13 | 84 | 1024.7 |
| 20260504035406 | 57 | 165 | 0.0 | 1.0 | 0.00 | 0.13 | 0.13 | 83 | 1024.6 |
| 20260504034902 | 57 | 166 | 1.0 | 1.0 | 0.00 | 0.13 | 0.13 | 82 | 1024.8 |
| 20260504034400 | 58 | 164 | 0.0 | 1.0 | 0.00 | 0.13 | 0.13 | 81 | 1024.8 |
| 20260504033856 | 58 | 175 | 3.0 | 3.0 | 0.00 | 0.13 | 0.13 | 81 | 1024.5 |
| 20260504033354 | 58 | 184 | 2.0 | 2.0 | 0.00 | 0.13 | 0.13 | 80 | 1024.6 |
| 20260504032850 | 58 | 177 | 2.0 | 3.0 | 0.00 | 0.13 | 0.13 | 81 | 1024.4 |
| 20260504032348 | 58 | 185 | 2.0 | 3.0 | 0.00 | 0.13 | 0.13 | 81 | 1024.6 |
| 20260504031845 | 59 | 169 | 2.0 | 2.0 | 0.00 | 0.13 | 0.13 | 80 | 1024.4 |
| 20260504031342 | 59 | 168 | 2.0 | 3.0 | 0.00 | 0.13 | 0.13 | 79 | 1024.4 |
| 20260504030838 | 59 | 182 | 7.0 | 7.0 | 0.00 | 0.13 | 0.13 | 78 | 1024.5 |
| 20260504030336 | 59 | 176 | 6.0 | 7.0 | 0.00 | 0.13 | 0.13 | 78 | 1024.5 |
| 20260504025832 | 59 | 190 | 5.0 | 8.0 | 0.00 | 0.13 | 0.13 | 79 | 1024.5 |
| 20260504025329 | 59 | 168 | 3.0 | 6.0 | 0.00 | 0.13 | 0.13 | 80 | 1024.5 |
| 20260504024825 | 58 | 153 | 3.0 | 3.0 | 0.00 | 0.13 | 0.13 | 79 | 1024.4 |
| 20260504024322 | 59 | 153 | 2.0 | 5.0 | 0.00 | 0.13 | 0.13 | 78 | 1024.6 |
| 20260504023818 | 59 | 159 | 2.0 | 3.0 | 0.00 | 0.13 | 0.13 | 78 | 1024.6 |
| 20260504023315 | 59 | 156 | 2.0 | 6.0 | 0.00 | 0.13 | 0.13 | 77 | 1024.3 |
| 20260504022810 | 58 | 156 | 3.0 | 5.0 | 0.00 | 0.13 | 0.13 | 77 | 1024.2 |
| 20260504022308 | 57 | 164 | 1.0 | 3.0 | 0.00 | 0.13 | 0.13 | 79 | 1024.3 |
| 20260504021804 | 56 | 148 | 3.0 | 3.0 | 0.00 | 0.13 | 0.13 | 81 | 1024.3 |
| 20260504021302 | 55 | 135 | 2.0 | 6.0 | 0.00 | 0.13 | 0.13 | 84 | 1024.5 |
| 20260504020758 | 55 | 157 | 0.0 | 0.0 | 0.00 | 0.13 | 0.13 | 84 | 1024.0 |
| 20260504020255 | 55 | 157 | 0.0 | 1.0 | 0.00 | 0.13 | 0.13 | 83 | 1024.0 |
| 20260504015751 | 55 | 157 | 0.0 | 0.0 | 0.00 | 0.13 | 0.13 | 83 | 1023.9 |
| 20260504015248 | 56 | 157 | 0.0 | 0.0 | 0.00 | 0.13 | 0.13 | 82 | 1023.9 |
| 20260504014743 | 56 | 156 | 0.0 | 0.0 | 0.00 | 0.13 | 0.13 | 80 | 1023.8 |
| 20260504014240 | 56 | 157 | 0.0 | 1.0 | 0.00 | 0.13 | 0.13 | 79 | 1023.7 |
| 20260504013738 | 57 | 157 | 0.0 | 1.0 | 0.00 | 0.13 | 0.13 | 79 | 1023.8 |
| 20260504013235 | 57 | 157 | 0.0 | 0.0 | 0.00 | 0.13 | 0.13 | 78 | 1023.6 |
| 20260504012731 | 57 | 157 | 0.0 | 0.0 | 0.00 | 0.13 | 0.13 | 77 | 1023.6 |
| 20260504012230 | 57 | 157 | 0.0 | 1.0 | 0.00 | 0.13 | 0.13 | 75 | 1023.6 |
| 20260504011726 | 57 | 157 | 1.0 | 1.0 | 0.00 | 0.13 | 0.13 | 76 | 1023.2 |
| 20260504011223 | 57 | 157 | 0.0 | 0.0 | 0.00 | 0.13 | 0.13 | 76 | 1023.3 |
| 20260504010719 | 59 | 157 | 0.0 | 0.0 | 0.00 | 0.13 | 0.13 | 77 | 1023.5 |
| 20260504010215 | 59 | 157 | 0.0 | 0.0 | 0.00 | 0.13 | 0.13 | 75 | 1023.3 |
| 20260504005711 | 59 | 157 | 0.0 | 0.0 | 0.00 | 0.13 | 0.13 | 73 | 1023.5 |
| 20260504005209 | 59 | 157 | 0.0 | 0.0 | 0.00 | 0.13 | 0.13 | 71 | 1023.5 |
| 20260504004707 | 60 | 157 | 1.0 | 1.0 | 0.00 | 0.13 | 0.13 | 71 | 1023.1 |
| 20260504004204 | 60 | 157 | 0.0 | 0.0 | 0.00 | 0.13 | 0.13 | 68 | 1023.1 |
| 20260504003700 | 61 | 157 | 0.0 | 1.0 | 0.00 | 0.13 | 0.13 | 69 | 1023.1 |
| 20260504003157 | 61 | 157 | 0.0 | 1.0 | 0.00 | 0.13 | 0.13 | 69 | 1023.0 |
| 20260504002653 | 62 | 157 | 0.0 | 0.0 | 0.00 | 0.13 | 0.13 | 67 | 1023.2 |
| 20260504002150 | 63 | 157 | 0.0 | 0.0 | 0.00 | 0.13 | 0.13 | 68 | 1023.0 |
| 20260504001648 | 64 | 157 | 1.0 | 1.0 | 0.00 | 0.13 | 0.13 | 68 | 1023.1 |
| 20260504001144 | 64 | 157 | 0.0 | 0.0 | 0.00 | 0.13 | 0.13 | 65 | 1022.8 |
| 20260504000641 | 65 | 157 | 0.0 | 1.0 | 0.00 | 0.13 | 0.13 | 63 | 1022.7 |
| 20260504000139 | 66 | 157 | 0.0 | 0.0 | 0.00 | 0.13 | 0.13 | 60 | 1022.9 |
| 20260503235637 | 66 | 157 | 0.0 | 1.0 | 0.00 | 0.13 | 0.13 | 55 | 1022.7 |
| 20260503235133 | 67 | 159 | 0.0 | 0.0 | 0.00 | 0.13 | 0.13 | 54 | 1022.5 |
| 20260503234631 | 68 | 159 | 0.0 | 0.0 | 0.00 | 0.13 | 0.13 | 50 | 1022.6 |
| 20260503234129 | 69 | 160 | 0.0 | 0.0 | 0.00 | 0.13 | 0.13 | 47 | 1022.7 |
| 20260503233626 | 69 | 167 | 0.0 | 0.0 | 0.00 | 0.13 | 0.13 | 44 | 1022.6 |
| 20260503233122 | 70 | 168 | 0.0 | 1.0 | 0.00 | 0.13 | 0.13 | 44 | 1022.5 |
| 20260503232619 | 71 | 139 | 0.0 | 1.0 | 0.00 | 0.13 | 0.13 | 43 | 1022.4 |
| 20260503232116 | 71 | 172 | 0.0 | 2.0 | 0.00 | 0.13 | 0.13 | 40 | 1022.5 |
| 20260503231614 | 72 | 187 | 1.0 | 2.0 | 0.00 | 0.13 | 0.13 | 44 | 1022.6 |
| 20260503231111 | 71 | 207 | 2.0 | 6.0 | 0.00 | 0.13 | 0.13 | 40 | 1022.6 |
| 20260503230608 | 71 | 258 | 2.0 | 3.0 | 0.00 | 0.13 | 0.13 | 40 | 1022.8 |
| 20260503230105 | 72 | 221 | 2.0 | 5.0 | 0.00 | 0.13 | 0.13 | 39 | 1022.4 |
| 20260503225602 | 72 | 204 | 1.0 | 2.0 | 0.00 | 0.13 | 0.13 | 41 | 1022.6 |
| 20260503225057 | 73 | 190 | 1.0 | 2.0 | 0.00 | 0.13 | 0.13 | 40 | 1022.6 |
| 20260503224555 | 73 | 317 | 2.0 | 5.0 | 0.00 | 0.13 | 0.13 | 40 | 1022.5 |
| 20260503224053 | 73 | 313 | 2.0 | 6.0 | 0.00 | 0.13 | 0.13 | 40 | 1022.7 |
| 20260503223550 | 73 | 164 | 0.0 | 1.0 | 0.00 | 0.13 | 0.13 | 41 | 1022.7 |
| 20260503223045 | 72 | 225 | 3.0 | 3.0 | 0.00 | 0.13 | 0.13 | 41 | 1022.8 |
| 20260503222544 | 73 | 191 | 1.0 | 2.0 | 0.00 | 0.13 | 0.13 | 39 | 1022.6 |
| 20260503222041 | 73 | 247 | 2.0 | 2.0 | 0.00 | 0.13 | 0.13 | 38 | 1022.9 |
| 20260503221539 | 74 | 215 | 2.0 | 3.0 | 0.00 | 0.13 | 0.13 | 38 | 1022.9 |
| 20260503221037 | 73 | 157 | 1.0 | 1.0 | 0.00 | 0.13 | 0.13 | 38 | 1022.9 |
| 20260503220532 | 72 | 186 | 1.0 | 3.0 | 0.00 | 0.13 | 0.13 | 42 | 1022.7 |
| 20260503220029 | 74 | 303 | 4.0 | 5.0 | 0.00 | 0.13 | 0.13 | 38 | 1022.9 |
| 20260503215527 | 73 | 288 | 4.0 | 7.0 | 0.00 | 0.13 | 0.13 | 37 | 1022.8 |
| 20260503215024 | 74 | 340 | 3.0 | 7.0 | 0.00 | 0.13 | 0.13 | 37 | 1023.1 |
| 20260503214522 | 73 | 252 | 5.0 | 8.0 | 0.00 | 0.13 | 0.13 | 38 | 1023.0 |
| 20260503214018 | 73 | 199 | 3.0 | 5.0 | 0.00 | 0.13 | 0.13 | 38 | 1023.2 |
| 20260503213517 | 73 | 182 | 3.0 | 9.0 | 0.00 | 0.13 | 0.13 | 37 | 1023.1 |
| 20260503213013 | 75 | 158 | 2.0 | 7.0 | 0.00 | 0.13 | 0.13 | 38 | 1023.0 |
| 20260503212510 | 74 | 176 | 2.0 | 5.0 | 0.00 | 0.13 | 0.13 | 40 | 1023.1 |
| 20260503212008 | 74 | 240 | 7.0 | 9.0 | 0.00 | 0.13 | 0.13 | 38 | 1022.8 |
| 20260503211505 | 75 | 218 | 4.0 | 5.0 | 0.00 | 0.13 | 0.13 | 39 | 1022.8 |
| 20260503211000 | 74 | 192 | 1.0 | 3.0 | 0.00 | 0.13 | 0.13 | 38 | 1022.9 |
| 20260503210457 | 74 | 200 | 3.0 | 3.0 | 0.00 | 0.13 | 0.13 | 38 | 1022.9 |
| 20260503205952 | 74 | 153 | 1.0 | 2.0 | 0.00 | 0.13 | 0.13 | 38 | 1022.7 |
| 20260503205449 | 74 | 294 | 2.0 | 2.0 | 0.00 | 0.13 | 0.13 | 38 | 1022.9 |
| 20260503204945 | 72 | 169 | 2.0 | 2.0 | 0.00 | 0.13 | 0.13 | 40 | 1023.0 |
| 20260503204443 | 71 | 151 | 3.0 | 6.0 | 0.00 | 0.13 | 0.13 | 40 | 1023.1 |
| 20260503203939 | 73 | 200 | 3.0 | 6.0 | 0.00 | 0.13 | 0.13 | 39 | 1023.1 |
| 20260503203437 | 73 | 203 | 4.0 | 7.0 | 0.00 | 0.13 | 0.13 | 40 | 1023.1 |
| 20260503202933 | 73 | 176 | 1.0 | 5.0 | 0.00 | 0.13 | 0.13 | 40 | 1023.2 |
| 20260503202432 | 72 | 356 | 6.0 | 8.0 | 0.00 | 0.13 | 0.13 | 40 | 1023.1 |